Home > Weather > Sheboygan > Past weeks

Flag for USA Past Weather in Sheboygan, Wisconsin, USA — Yesterday and Last 2 Weeks

Now
61 °F

Clear.


Feels Like: 61 °F
Forecast: 61 / 76 °F
Wind: 3 mph from South

Location: Sheboygan County Memorial Airport

Current Time: Jun 25, 2016 at 3:57:48 AM

Latest Report: Jun 25, 2016 at 2:53 AM


Visibility: 8 mi

Pressure: 30.06 "Hg

Humidity: 90%

Dew Point: 58 °F

Location of SheboyganLocation

Past Weather in Sheboygan — Graph

°F

Sheboygan Temperature Yesterday

Maximum temperature yesterday: 78 °F (at 1:53 PM)
Minimum temperature yesterday: 51 °F (at 4:53 AM)
Average temperature yesterday: 66 °F

High & Low Weather Summary for the Past Weeks

 TemperatureHumidityPressure
High88 °F (Jun 11, 4:53 PM)100% (Jun 10, 7:58 AM)30.24 "Hg (Jun 10, 7:58 AM)
Low50 °F (Jun 13, 3:53 AM)28% (Jun 20, 3:53 PM)29.66 "Hg (Jun 15, 6:53 PM)
Average67 °F69%29.98 "Hg
* Reported Jun 10 1:53 AM — Jun 25 1:53 AM, Sheboygan, Weather by CustomWeather, © 2016

Note: Actual official high and low records may vary slightly from our data, if they occured in-between our weather recording intervals... More about our weather records

Advertising

Sheboygan Weather History for the Previous 24 Hours

Scroll right to see more
 ConditionsComfort  
Time TempWeatherWind HumidityBarometerVisibility
1:53 AM
Sat, Jun 25
61 °FClear.3 mph87%30.06 "Hg10 mi
12:53 AM62 °FClear.No wind83%30.07 "Hg10 mi
11:53 PM
Fri, Jun 24
60 °FClear.No wind86%30.07 "Hg10 mi
10:53 PM63 °FClear.3 mph81%30.07 "Hg10 mi
9:53 PM65 °FClear.3 mph76%30.07 "Hg10 mi
8:53 PM68 °FSunny.3 mph65%30.06 "Hg10 mi
7:53 PM71 °FSunny.6 mph59%30.06 "Hg10 mi
6:53 PM73 °FSunny.8 mph55%30.06 "Hg10 mi
5:53 PM74 °FSunny.6 mph56%30.06 "Hg10 mi
4:53 PM76 °FSunny.10 mph52%30.07 "Hg10 mi
3:53 PM77 °FSunny.12 mph50%30.09 "Hg10 mi
2:53 PM77 °FSunny.6 mph45%30.09 "Hg10 mi
1:53 PM78 °FSunny.9 mph33%30.10 "Hg10 mi
12:53 PM76 °FSunny.7 mph40%30.11 "Hg10 mi
11:53 AM76 °FSunny.9 mph45%30.12 "Hg10 mi
10:53 AM74 °FSunny.6 mph48%30.11 "Hg10 mi
9:53 AM72 °FSunny.No wind55%30.11 "Hg10 mi
8:53 AM69 °FSunny.5 mph59%30.10 "Hg10 mi
7:53 AM64 °FSunny.5 mph68%30.09 "Hg10 mi
6:53 AM62 °FSunny.No wind60%30.08 "Hg10 mi
5:53 AM55 °FClear.3 mph80%30.07 "Hg10 mi
4:53 AM51 °FClear.3 mph86%30.06 "Hg10 mi
3:53 AM53 °FClear.No wind83%30.06 "Hg10 mi
Weather by CustomWeather, © 2016

See weather overviewHow to use our weather pages